Location: Andershausen
(51.8462°N, 9.8595°E)
Time: 06:05:09
(UTC+00:00)

Cosmos 1190 Rocket - Pass Details

Date: 18 November 2025
Orbit: 752 x 775 km, 74.1° (Epoch: 11 December)

Event Time Altitude Azimuth Distance (km) Brightness Sun altitude
Rises 17:55:08 0° 208° (SSW) 3,243 7.7 -22.7°
Reaches altitude 10° 17:57:31 10° 211° (SSW) 2,321 6.9 -23.1°
Maximum altitude 18:02:48 75° 296° (WNW) 808 4.1 -23.9°
Enters shadow 18:05:26 30° 17° (NNE) 1,357 5.1 -24.3°
